Weather History for KMCB - July, 2013

Change the Weather History Date:

Thursday, July 11, 2013

  Actual Average Record
Temperature  
Mean Temperature 80 °F -  
Max Temperature 90 °F 91 °F 98 °F (2000)
Min Temperature 71 °F 69 °F 62 °F (1953)
Cooling Degree Days 14    
Growing Degree Days 30 (Base 50)    
Moisture  
Dew Point 72 °F    
Average Humidity 88    
Maximum Humidity 97    
Minimum Humidity 63    
Precipitation  
Precipitation 1.43 in - - ()
Sea Level Pressure  
Sea Level Pressure 29.98 in    
Wind  
Wind Speed 5 mph (WNW)    
Max Wind Speed 20 mph    
Max Gust Speed 36 mph    
Visibility 8 miles    
Events Fog , Rain , Thunderstorm    
Averages and records for this station are not official NWS values.
T = Trace of Precipitation, MM = Missing Value Source: NWS Daily Summary

Daily Weather History Graph

Daily Weather History Graph

Search for Another Location

Airport or City:

Trip Planner

Search our weather history database for the weather conditions in past years. The results will help you decide how hot, cold, wet, or windy it might be!

Date:

Astronomy

Jul. 11, 2013 Rise Set
Actual Time 6:06 AM CDT 8:08 PM CDT
Civil Twilight 5:38 AM CDT 8:35 PM CDT
Nautical Twilight 5:05 AM CDT 9:09 PM CDT
Astronomical Twilight 4:29 AM CDT 9:44 PM CDT
Moon 9:09 AM CDT (7/11) 10:06 PM CDT (7/11)
Length of Visible Light 14h 56m
Length of Day
14h 02m
Waxing Crescent, 11% of the Moon is Illuminated
Jul 11
Waxing Crescent
Jul 15
First Quarter
Jul 22
Full
Jul 29
Last Quarter
Aug 6
New

Hourly Weather History & Observations

Time (CDT) Temp. Heat Index Dew Point Humidity Pressure Visibility Wind Dir Wind Speed Gust Speed Precip Events Conditions
12:53 AM 78.1 °F - 75.0 °F 90% 29.98 in 10.0 mi Calm Calm - N/A   Clear
1:53 AM 78.1 °F - 73.9 °F 87% 29.99 in 10.0 mi Calm Calm - N/A   Clear
2:53 AM 77.0 °F - 73.9 °F 90% 29.99 in 10.0 mi West 3.5 mph - N/A   Clear
3:53 AM 75.9 °F - 73.9 °F 94% 29.99 in 10.0 mi West 4.6 mph - N/A   Scattered Clouds
4:53 AM 75.9 °F - 73.9 °F 94% 29.98 in 10.0 mi WSW 4.6 mph - N/A   Mostly Cloudy
5:53 AM 75.9 °F - 73.9 °F 94% 29.97 in 10.0 mi Calm Calm - N/A   Clear
6:53 AM 75.9 °F - 73.9 °F 94% 29.98 in 10.0 mi West 3.5 mph - N/A   Clear
7:39 AM 77.0 °F - 73.4 °F 89% 30.01 in 10.0 mi WNW 5.8 mph - N/A   Mostly Cloudy
7:53 AM 78.1 °F - 75.0 °F 90% 29.99 in 10.0 mi WNW 6.9 mph - N/A   Scattered Clouds
8:53 AM 82.0 °F 87.9 °F 73.9 °F 76% 29.99 in 10.0 mi WNW 9.2 mph - N/A   Clear
9:53 AM 84.0 °F 89.6 °F 72.0 °F 67% 29.98 in 10.0 mi WNW 9.2 mph - N/A   Clear
10:53 AM 87.1 °F 94.5 °F 73.0 °F 63% 29.99 in 10.0 mi WNW 8.1 mph - N/A   Clear
11:53 AM 87.1 °F 96.3 °F 75.0 °F 67% 29.97 in 10.0 mi West 6.9 mph - N/A   Mostly Cloudy
12:02 PM 86.0 °F 93.4 °F 73.4 °F 66% 29.99 in 10.0 mi WNW 8.1 mph - N/A   Mostly Cloudy
12:09 PM 86.0 °F 93.4 °F 73.4 °F 66% 29.98 in 10.0 mi WNW 6.9 mph - N/A   Mostly Cloudy
12:53 PM 88.0 °F 98.5 °F 75.9 °F 67% 29.95 in 10.0 mi WNW 11.5 mph - N/A   Partly Cloudy
1:08 PM 87.8 °F 97.6 °F 75.2 °F 66% 29.97 in 10.0 mi West 9.2 mph 17.3 mph N/A Thunderstorm Clear
1:31 PM 77.0 °F - 69.8 °F 78% 29.99 in 10.0 mi East 12.7 mph 24.2 mph N/A Thunderstorm Thunderstorm
1:43 PM 75.2 °F - 71.6 °F 89% 30.04 in 2.0 mi NNE 11.5 mph 24.2 mph 0.06 in Rain , Thunderstorm Light Thunderstorms and Rain
1:45 PM 73.4 °F - 71.6 °F 94% 30.05 in 0.8 mi NNE 19.6 mph 35.7 mph 0.18 in Rain , Thunderstorm Heavy Thunderstorms and Rain
1:50 PM 71.6 °F - 69.8 °F 94% 30.03 in 0.2 mi ENE 17.3 mph 35.7 mph 0.63 in Fog , Rain , Thunderstorm Heavy Thunderstorms and Rain
1:53 PM 71.1 °F - 70.0 °F 96% 30.03 in 0.2 mi NE 15.0 mph 35.7 mph 0.83 in Fog , Rain , Thunderstorm Heavy Thunderstorms and Rain
2:02 PM 71.6 °F - 69.8 °F 94% 30.02 in 0.5 mi ENE 10.4 mph 20.7 mph 0.37 in Fog , Rain , Thunderstorm Heavy Thunderstorms and Rain
2:11 PM 71.6 °F - 69.8 °F 94% 30.03 in 1.5 mi ENE 8.1 mph 20.7 mph 0.46 in Rain , Thunderstorm Heavy Thunderstorms and Rain
2:26 PM 71.6 °F - 69.8 °F 94% 30.02 in 2.5 mi Variable 3.5 mph - 0.56 in Rain , Thunderstorm Heavy Thunderstorms and Rain
2:35 PM 71.6 °F - 69.8 °F 94% 30.03 in 6.0 mi Variable 4.6 mph - 0.56 in Rain , Thunderstorm Light Rain
2:49 PM 71.6 °F - 69.8 °F 94% 30.02 in 10.0 mi Calm Calm - 0.57 in Rain Light Rain
2:53 PM 71.1 °F - 70.0 °F 96% 30.01 in 10.0 mi Calm Calm - 0.57 in Rain Light Rain
3:04 PM 71.6 °F - 69.8 °F 94% 30.01 in 10.0 mi Calm Calm - 0.00 in Rain Light Rain
3:53 PM 72.0 °F - 70.0 °F 93% 29.98 in 7.0 mi South 6.9 mph - 0.02 in Rain Light Rain
4:12 PM 71.6 °F - 69.8 °F 94% 29.99 in 10.0 mi South 3.5 mph - 0.00 in   Mostly Cloudy
4:53 PM 72.0 °F - 70.0 °F 93% 29.95 in 10.0 mi South 5.8 mph - 0.00 in   Clear
5:24 PM 73.4 °F - 71.6 °F 94% 29.97 in 10.0 mi WSW 4.6 mph - N/A   Partly Cloudy
5:53 PM 73.0 °F - 71.1 °F 93% 29.94 in 10.0 mi West 4.6 mph - N/A   Mostly Cloudy
6:53 PM 73.0 °F - 71.1 °F 93% 29.92 in 10.0 mi WNW 3.5 mph - N/A   Overcast
7:53 PM 72.0 °F - 71.1 °F 97% 29.91 in 10.0 mi West 4.6 mph - N/A   Scattered Clouds
8:36 PM 71.6 °F - 69.8 °F 94% 29.93 in 10.0 mi Calm Calm - N/A   Mostly Cloudy
8:46 PM 71.6 °F - 69.8 °F 94% 29.93 in 10.0 mi Calm Calm - N/A   Scattered Clouds
8:53 PM 72.0 °F - 70.0 °F 93% 29.92 in 10.0 mi Calm Calm - N/A   Mostly Cloudy
9:53 PM 71.1 °F - 70.0 °F 96% 29.94 in 10.0 mi Calm Calm - N/A   Mostly Cloudy
10:06 PM 71.6 °F - 69.8 °F 94% 29.95 in 10.0 mi WNW 3.5 mph - N/A   Scattered Clouds
10:53 PM 71.1 °F - 70.0 °F 96% 29.94 in 9.0 mi Calm Calm - N/A   Clear
11:53 PM 71.1 °F - 70.0 °F 96% 29.93 in 10.0 mi Calm Calm - 0.01 in   Clear